THY3UN LTFM-EGLL

Flight info

Callsign THY3UN
Flight time N/A
Altitude 36000
Route TUDBU1D/35L TUDBU Q26 ETUBA DCT NAVOD DCT INVED DCT BEGLA/N0475F380 DCT DEXIT DCT INBED DCT BOMBI DCT ADKUV DCT BUB L608 LOGAN
Aircraft B77W/H-SDE1E2E3FGHIJ2J3J4J5M1RWXY/LB1D1

Departure

Time 2026-05-06 14:45
Airport İstanbul Airport (LTFM)

Arrival

Time N/A
Airport London Heathrow Airport (EGLL)
Time Latitude Longitude Altitude Speed Heading
2026-05-06 14:11 41.26538 28.74134 318 ft 0 kts 90°
2026-05-06 14:33 41.26537 28.74105 330 ft 4 kts 81°
2026-05-06 14:33 41.26530 28.74070 318 ft 4 kts 65°
2026-05-06 14:33 41.26516 28.74041 316 ft 4 kts 43°
2026-05-06 14:34 41.26495 28.74022 316 ft 4 kts
2026-05-06 14:34 41.26487 28.74021 316 ft 0 kts 359°
2026-05-06 14:37 41.26490 28.74021 316 ft 1 kts 359°
2026-05-06 14:37 41.26502 28.74021 315 ft 7 kts 359°
2026-05-06 14:37 41.26572 28.74019 318 ft 11 kts 359°
2026-05-06 14:37 41.26646 28.74019 318 ft 11 kts 360°
2026-05-06 14:38 41.26720 28.74018 318 ft 11 kts 359°
2026-05-06 14:38 41.26794 28.74018 318 ft 11 kts 359°
2026-05-06 14:38 41.26865 28.74015 318 ft 11 kts 359°
2026-05-06 14:38 41.26939 28.74014 318 ft 11 kts 359°
2026-05-06 14:39 41.27021 28.74011 317 ft 12 kts 353°
2026-05-06 14:39 41.27051 28.73937 317 ft 10 kts 265°
2026-05-06 14:39 41.27048 28.73844 315 ft 10 kts 269°
2026-05-06 14:39 41.27048 28.73749 318 ft 11 kts 269°
2026-05-06 14:40 41.27047 28.73646 318 ft 11 kts 269°
2026-05-06 14:40 41.27046 28.73538 318 ft 12 kts 269°
2026-05-06 14:40 41.27045 28.73424 318 ft 13 kts 269°
2026-05-06 14:40 41.27044 28.73306 315 ft 13 kts 268°
2026-05-06 14:41 41.27041 28.73183 313 ft 14 kts 269°
2026-05-06 14:41 41.27040 28.73053 311 ft 12 kts 269°
2026-05-06 14:41 41.26996 28.72990 313 ft 10 kts 184°
2026-05-06 14:41 41.26923 28.72989 315 ft 10 kts 180°
2026-05-06 14:42 41.26851 28.72990 316 ft 10 kts 179°
2026-05-06 14:42 41.26779 28.72991 314 ft 10 kts 179°
2026-05-06 14:42 41.26723 28.72948 316 ft 10 kts 250°
2026-05-06 14:42 41.26718 28.72848 313 ft 12 kts 268°
2026-05-06 14:43 41.26714 28.72737 314 ft 12 kts 268°
2026-05-06 14:43 41.26714 28.72624 316 ft 12 kts 271°
2026-05-06 14:43 41.26723 28.72523 315 ft 9 kts 307°
2026-05-06 14:43 41.26746 28.72513 313 ft 0 kts 358°
2026-05-06 14:44 41.26783 28.72512 315 ft 24 kts 359°
2026-05-06 14:44 41.27260 28.72506 302 ft 112 kts 359°
2026-05-06 14:44 41.28270 28.72486 313 ft 174 kts
2026-05-06 14:45 41.30740 28.72438 1946 ft 184 kts 360°
2026-05-06 14:45 41.32048 28.72448 2646 ft 194 kts 358°
2026-05-06 14:45 41.33435 28.72462 3246 ft 208 kts 359°
2026-05-06 14:45 41.34934 28.72500 3857 ft 225 kts 359°
2026-05-06 14:46 41.36615 28.72543 4247 ft 253 kts 359°
2026-05-06 14:46 41.38389 28.72553 4932 ft 250 kts 354°
2026-05-06 14:46 41.40035 28.71934 5246 ft 251 kts 330°
2026-05-06 14:46 41.41566 28.70759 6187 ft 252 kts 329°
2026-05-06 14:47 41.43101 28.69595 7123 ft 253 kts 331°
2026-05-06 14:47 41.44670 28.68483 8048 ft 257 kts 333°
2026-05-06 14:47 41.46270 28.67425 8881 ft 264 kts 334°
2026-05-06 14:47 41.47935 28.66346 9822 ft 267 kts 335°
2026-05-06 14:48 41.49624 28.65260 10617 ft 276 kts 335°
2026-05-06 14:48 41.51439 28.64098 10894 ft 305 kts 335°
2026-05-06 14:48 41.53446 28.62813 11133 ft 335 kts 335°
2026-05-06 14:48 41.55605 28.61430 11723 ft 351 kts 335°
2026-05-06 14:49 41.57762 28.59844 12531 ft 360 kts 324°
2026-05-06 14:49 41.59531 28.57464 13394 ft 366 kts 312°
2026-05-06 14:49 41.61210 28.54847 14311 ft 374 kts 314°
2026-05-06 14:49 41.62952 28.52247 15408 ft 376 kts 314°
2026-05-06 14:50 41.64714 28.49660 16460 ft 380 kts 315°
2026-05-06 14:50 41.66510 28.47019 17428 ft 386 kts 313°
2026-05-06 14:50 41.68037 28.44015 18335 ft 397 kts 299°
2026-05-06 14:50 41.69134 28.40589 19152 ft 403 kts 295°
2026-05-06 14:51 41.70201 28.37101 20050 ft 407 kts 295°
2026-05-06 14:51 41.71290 28.33599 20970 ft 409 kts 296°
2026-05-06 14:51 41.72406 28.30088 21877 ft 411 kts 296°
2026-05-06 14:51 41.73544 28.26559 22726 ft 416 kts 296°
2026-05-06 14:52 41.74705 28.22986 23550 ft 420 kts 296°
2026-05-06 14:52 41.75876 28.19388 24068 ft 422 kts 296°
2026-05-06 14:52 41.77049 28.15779 24087 ft 424 kts 296°
2026-05-06 14:52 41.78219 28.12175 24495 ft 428 kts 296°
2026-05-06 14:53 41.79429 28.08529 25207 ft 429 kts 299°
2026-05-06 14:53 41.80997 28.05169 25930 ft 427 kts 309°
2026-05-06 14:53 41.82834 28.02038 26565 ft 430 kts 311°
2026-05-06 14:53 41.84715 27.98885 27141 ft 434 kts 310°
2026-05-06 14:54 41.86588 27.95687 27744 ft 438 kts 310°
2026-05-06 14:54 41.88428 27.92477 28334 ft 441 kts 309°
2026-05-06 14:54 41.90285 27.89185 28922 ft 444 kts 309°
2026-05-06 14:54 41.92163 27.85827 29443 ft 447 kts 309°
2026-05-06 14:55 41.94007 27.82526 29925 ft 450 kts 309°
2026-05-06 14:55 41.95888 27.79159 30403 ft 451 kts 309°
2026-05-06 14:55 41.97834 27.75860 30898 ft 449 kts 313°
2026-05-06 14:55 41.99896 27.72723 31452 ft 447 kts 312°
2026-05-06 14:56 42.01848 27.69472 31980 ft 447 kts 310°
2026-05-06 14:56 42.03742 27.66152 32530 ft 446 kts 310°
2026-05-06 14:56 42.05614 27.62828 32992 ft 446 kts 310°
2026-05-06 14:56 42.07492 27.59511 33464 ft 445 kts 310°
2026-05-06 14:57 42.09375 27.56215 33964 ft 444 kts 310°
2026-05-06 14:57 42.11267 27.52930 34395 ft 443 kts 310°
2026-05-06 14:57 42.13159 27.49662 34780 ft 443 kts 310°
2026-05-06 14:57 42.15055 27.46396 35126 ft 443 kts 310°
2026-05-06 14:58 42.16956 27.43122 35504 ft 443 kts 310°
2026-05-06 14:58 42.18856 27.39846 35828 ft 444 kts 310°
2026-05-06 14:58 42.20764 27.36556 36000 ft 448 kts 310°
2026-05-06 14:59 42.24604 27.29916 35989 ft 446 kts 310°
2026-05-06 14:59 42.28363 27.23394 36009 ft 440 kts 310°
2026-05-06 15:00 42.32129 27.16852 36051 ft 441 kts 309°
2026-05-06 15:00 42.35898 27.10291 36032 ft 443 kts 310°
2026-05-06 15:01 42.39646 27.03749 36046 ft 443 kts 309°
2026-05-06 15:01 42.43322 26.97318 36044 ft 442 kts 309°
2026-05-06 15:02 42.47081 26.90729 36040 ft 442 kts 309°
2026-05-06 15:02 42.50830 26.84144 36027 ft 441 kts 310°
2026-05-06 15:03 42.54569 26.77561 36037 ft 440 kts 309°
2026-05-06 15:03 42.58296 26.70984 36025 ft 439 kts 309°
2026-05-06 15:04 42.62011 26.64413 36023 ft 439 kts 309°
2026-05-06 15:04 42.65716 26.57846 36025 ft 437 kts 310°
2026-05-06 15:05 42.69399 26.51306 36026 ft 434 kts 310°
2026-05-06 15:05 42.73064 26.44782 36021 ft 434 kts 310°
2026-05-06 15:06 42.76716 26.38260 36025 ft 433 kts 309°
2026-05-06 15:06 42.80364 26.31733 36004 ft 433 kts 309°
2026-05-06 15:07 42.83990 26.25232 36016 ft 434 kts 309°
2026-05-06 15:07 42.87641 26.18672 36006 ft 435 kts 309°
2026-05-06 15:08 42.91302 26.12076 35996 ft 437 kts 309°
2026-05-06 15:08 42.94966 26.05461 35996 ft 437 kts 309°
2026-05-06 15:09 42.98632 25.98828 35983 ft 438 kts 309°
2026-05-06 15:09 43.02295 25.92185 35976 ft 438 kts 309°
2026-05-06 15:10 43.05954 25.85534 35972 ft 438 kts 309°
2026-05-06 15:10 43.09614 25.78868 35969 ft 438 kts 309°
2026-05-06 15:11 43.13270 25.72192 35965 ft 438 kts 308°
2026-05-06 15:11 43.16920 25.65514 35963 ft 438 kts 308°
2026-05-06 15:12 43.20567 25.58826 35966 ft 438 kts 308°
2026-05-06 15:12 43.24213 25.52123 35977 ft 438 kts 308°
2026-05-06 15:13 43.27823 25.45472 35969 ft 438 kts 308°
2026-05-06 15:13 43.31460 25.38757 35971 ft 438 kts 308°
2026-05-06 15:14 43.35087 25.32044 35957 ft 438 kts 308°
2026-05-06 15:14 43.38709 25.25326 35968 ft 437 kts 308°
2026-05-06 15:15 43.42328 25.18597 35970 ft 437 kts 308°
2026-05-06 15:15 43.45943 25.11860 35970 ft 438 kts 308°
2026-05-06 15:16 43.49554 25.05117 35961 ft 438 kts 307°
2026-05-06 15:16 43.53166 24.98355 35966 ft 438 kts 307°
2026-05-06 15:17 43.56170 24.92719 35967 ft 439 kts 307°
2026-05-06 15:17 43.59781 24.85931 35972 ft 439 kts 307°
2026-05-06 15:18 43.63389 24.79133 35949 ft 439 kts 307°
2026-05-06 15:18 43.66998 24.72315 35963 ft 439 kts 307°
2026-05-06 15:19 43.70599 24.65497 35961 ft 439 kts 307°
2026-05-06 15:19 43.74198 24.58670 35962 ft 439 kts 307°
2026-05-06 15:20 43.77984 24.52049 35949 ft 439 kts 311°
2026-05-06 15:20 43.81971 24.45647 35955 ft 439 kts 311°
2026-05-06 15:21 43.85963 24.39240 35960 ft 439 kts 311°
2026-05-06 15:21 43.89946 24.32803 35958 ft 440 kts 311°
2026-05-06 15:22 43.93920 24.26346 35953 ft 440 kts 310°
2026-05-06 15:22 43.97890 24.19876 35957 ft 440 kts 310°
2026-05-06 15:23 44.01829 24.13440 35958 ft 440 kts 310°
2026-05-06 15:23 44.05790 24.06957 35958 ft 441 kts 310°
2026-05-06 15:24 44.09761 24.00441 35946 ft 441 kts 310°
2026-05-06 15:24 44.13723 23.93926 35952 ft 441 kts 310°
2026-05-06 15:25 44.17681 23.87403 35955 ft 441 kts 310°
2026-05-06 15:25 44.21631 23.80878 35950 ft 441 kts 310°
2026-05-06 15:26 44.25576 23.74347 35955 ft 440 kts 309°
2026-05-06 15:26 44.29518 23.67806 35954 ft 440 kts 309°
2026-05-06 15:27 44.33456 23.61254 35961 ft 440 kts 309°
2026-05-06 15:27 44.37389 23.54698 35957 ft 440 kts 309°
2026-05-06 15:28 44.41321 23.48128 35951 ft 440 kts 309°
2026-05-06 15:28 44.45248 23.41551 35950 ft 440 kts 309°
2026-05-06 15:29 44.49172 23.34964 35954 ft 440 kts 309°
2026-05-06 15:29 44.53092 23.28368 35947 ft 441 kts 309°
2026-05-06 15:30 44.57009 23.21762 35956 ft 441 kts 309°
2026-05-06 15:30 44.60924 23.15146 35948 ft 440 kts 308°
2026-05-06 15:31 44.64806 23.08568 35951 ft 440 kts 308°
2026-05-06 15:31 44.68704 23.01948 35953 ft 440 kts 308°
2026-05-06 15:32 44.74553 22.91987 35948 ft 440 kts 308°
2026-05-06 15:32 44.78444 22.85340 35955 ft 440 kts 308°
2026-05-06 15:33 44.82335 22.78677 35961 ft 440 kts 308°
2026-05-06 15:33 44.86219 22.72013 35964 ft 440 kts 308°
2026-05-06 15:34 44.90094 22.65342 35964 ft 440 kts 308°
2026-05-06 15:34 44.93968 22.58667 35965 ft 439 kts 308°
2026-05-06 15:35 44.97835 22.51985 35969 ft 439 kts 308°
2026-05-06 15:35 45.01693 22.45301 35967 ft 439 kts 308°
2026-05-06 15:36 45.05547 22.38608 35965 ft 439 kts 308°
2026-05-06 15:36 45.09404 22.31895 35967 ft 440 kts 307°
2026-05-06 15:37 45.13258 22.25170 35965 ft 439 kts 307°
2026-05-06 15:37 45.17097 22.18456 35962 ft 439 kts 307°
2026-05-06 15:38 45.20939 22.11721 35966 ft 439 kts 307°
2026-05-06 15:38 45.24771 22.04987 35966 ft 439 kts 307°
2026-05-06 15:39 45.28607 21.98231 35947 ft 439 kts 307°
2026-05-06 15:39 45.32435 21.91473 35950 ft 439 kts 307°
2026-05-06 15:40 45.36256 21.84708 35940 ft 438 kts 307°
2026-05-06 15:40 45.40069 21.77944 35942 ft 439 kts 307°
2026-05-06 15:41 45.43862 21.71199 35940 ft 440 kts 306°
2026-05-06 15:41 45.47686 21.64381 35941 ft 441 kts 306°
2026-05-06 15:42 45.51511 21.57545 35935 ft 441 kts 306°
2026-05-06 15:42 45.55335 21.50697 35947 ft 441 kts 306°
2026-05-06 15:43 45.59152 21.43843 35937 ft 440 kts 306°
2026-05-06 15:43 45.62951 21.37005 35936 ft 439 kts 306°
2026-05-06 15:44 45.66747 21.30155 35935 ft 439 kts 306°
2026-05-06 15:44 45.70529 21.23315 35939 ft 438 kts 306°
2026-05-06 15:45 45.74310 21.16460 35937 ft 439 kts 306°
2026-05-06 15:45 45.78086 21.09594 35938 ft 439 kts 306°
2026-05-06 15:46 45.81861 21.02716 35931 ft 439 kts 305°
2026-05-06 15:46 45.85639 20.95814 35938 ft 440 kts 306°
2026-05-06 15:47 45.89413 20.88906 35920 ft 440 kts 305°
2026-05-06 15:47 45.93179 20.81992 35916 ft 440 kts 305°
2026-05-06 15:48 45.96941 20.75068 35918 ft 440 kts 305°
2026-05-06 15:48 46.00679 20.68173 35931 ft 440 kts 305°
2026-05-06 15:49 46.04436 20.61227 35916 ft 440 kts 304°
2026-05-06 15:49 46.08194 20.54259 35913 ft 441 kts 304°
2026-05-06 15:50 46.11957 20.47264 35933 ft 442 kts 304°
2026-05-06 15:50 46.15723 20.40249 35917 ft 443 kts 304°
2026-05-06 15:51 46.19502 20.33224 35923 ft 443 kts 304°
2026-05-06 15:51 46.23283 20.26201 35915 ft 443 kts 304°
2026-05-06 15:52 46.27056 20.19173 35917 ft 443 kts 304°
2026-05-06 15:52 46.30825 20.12130 35916 ft 443 kts 304°
2026-05-06 15:53 46.34588 20.05080 35915 ft 442 kts 304°
2026-05-06 15:53 46.38341 19.98029 35912 ft 442 kts 304°
2026-05-06 15:54 46.42088 19.90971 35913 ft 442 kts 304°
2026-05-06 15:54 46.45830 19.83907 35910 ft 442 kts 304°
2026-05-06 15:55 46.49565 19.76836 35920 ft 442 kts 304°
2026-05-06 15:55 46.53300 19.69748 35922 ft 442 kts 303°
2026-05-06 15:56 46.57032 19.62647 35910 ft 442 kts 303°
2026-05-06 15:56 46.60760 19.55535 35908 ft 442 kts 303°
2026-05-06 15:57 46.64490 19.48403 35907 ft 443 kts 303°
2026-05-06 15:57 46.68189 19.41312 35906 ft 443 kts 303°
2026-05-06 15:58 46.71918 19.34142 35936 ft 448 kts 303°
2026-05-06 15:58 46.73781 19.30550 36205 ft 449 kts 303°
2026-05-06 15:58 46.75657 19.26933 36627 ft 448 kts 303°
2026-05-06 15:59 46.77514 19.23352 37074 ft 445 kts 303°
2026-05-06 15:59 46.79358 19.19788 37491 ft 443 kts 303°
2026-05-06 15:59 46.81203 19.16218 37838 ft 443 kts 303°
2026-05-06 15:59 46.83056 19.12624 37906 ft 445 kts 303°
2026-05-06 16:00 46.86775 19.05400 37901 ft 445 kts 303°
2026-05-06 16:00 46.90483 18.98178 37903 ft 445 kts 303°
2026-05-06 16:01 46.94191 18.90940 37904 ft 446 kts 303°
2026-05-06 16:01 46.97875 18.83728 37899 ft 446 kts 302°
2026-05-06 16:02 47.01606 18.76405 37906 ft 446 kts 302°
2026-05-06 16:02 47.05296 18.69145 37898 ft 447 kts 302°
2026-05-06 16:03 47.09004 18.61828 37898 ft 448 kts 302°